Manor / Austin Executive, TX

10:50 AM CST on December 10, 2019 (GMT -0600)
Manor / Austin Executive

Weather History for KEDC - October, 2019

Change the Weather History Date:

Thursday, October 31, 2019

  Actual Average (KAUS) Record (KAUS)
Temperature  
Mean Temperature 42 °F -  
Max Temperature 53 °F 73 °F 90 °F (1997)
Min Temperature 32 °F 52 °F 32 °F (1993)
Degree Days  
Heating Degree Days 22    
Moisture  
Dew Point 25 °F    
Average Humidity 54    
Maximum Humidity 80    
Minimum Humidity 26    
Precipitation  
Precipitation 0.00 in - - ()
Sea Level Pressure  
Sea Level Pressure 30.42 in    
Wind  
Wind Speed 15 mph (North)    
Max Wind Speed 23 mph    
Max Gust Speed 37 mph    
Visibility 10 miles    
Events      
Averages and records for this station are not official NWS values.
T = Trace of Precipitation, MM = Missing Value Source: NWS Daily Summary

Daily Weather History Graph

Daily Weather History Graph

Search for Another Location

Airport or City:

Astronomy

Oct. 31, 2019 Rise Set
Actual Time 7:43 AM CDT 6:43 PM CDT
Civil Twilight 7:19 AM CDT 7:08 PM CDT
Nautical Twilight 6:50 AM CDT 7:36 PM CDT
Astronomical Twilight 6:22 AM CDT 8:04 PM CDT
Moon 11:22 AM CDT (10/31) 9:53 PM CDT (10/31)
Length of Visible Light 11h 49m
Length of Day
10h 59m
Waxing Crescent, 16% of the Moon is Illuminated
Oct 31
Waxing Crescent
Nov 4
First Quarter
Nov 12
Full
Nov 19
Last Quarter
Nov 26
New

Hourly Weather History & Observations

Time (CDT) Temp. Windchill Dew Point Humidity Pressure Visibility Wind Dir Wind Speed Gust Speed Precip Events Conditions
12:15 AM 41.0 °F 31.1 °F 32.0 °F 70% 30.31 in 10.0 mi North 23.0 mph 36.8 mph N/A   Overcast
12:35 AM 41.0 °F 32.2 °F 32.0 °F 70% 30.33 in 10.0 mi North 18.4 mph 31.1 mph N/A   Overcast
12:55 AM 39.2 °F 29.8 °F 32.0 °F 75% 30.33 in 10.0 mi North 18.4 mph 26.5 mph N/A   Overcast
1:15 AM 39.2 °F 29.6 °F 30.2 °F 70% 30.33 in 10.0 mi North 19.6 mph 27.6 mph N/A   Mostly Cloudy
1:35 AM 39.2 °F 29.0 °F 30.2 °F 70% 30.33 in 10.0 mi North 21.9 mph 29.9 mph N/A   Partly Cloudy
1:55 AM 39.2 °F 29.3 °F 30.2 °F 70% 30.34 in 10.0 mi North 20.7 mph 27.6 mph N/A   Mostly Cloudy
2:15 AM 39.2 °F 29.0 °F 28.4 °F 65% 30.35 in 10.0 mi North 21.9 mph 28.8 mph N/A   Mostly Cloudy
2:35 AM 39.2 °F 30.2 °F 28.4 °F 65% 30.35 in 10.0 mi North 17.3 mph 24.2 mph N/A   Scattered Clouds
2:55 AM 37.4 °F 28.2 °F 30.2 °F 75% 30.36 in 10.0 mi North 16.1 mph 21.9 mph N/A   Partly Cloudy
3:15 AM 37.4 °F 29.3 °F 30.2 °F 75% 30.36 in 10.0 mi North 12.7 mph - N/A   Partly Cloudy
3:35 AM 37.4 °F 29.8 °F 30.2 °F 75% 30.36 in 10.0 mi North 11.5 mph - N/A   Partly Cloudy
3:55 AM 37.4 °F 27.8 °F 28.4 °F 70% 30.37 in 10.0 mi North 17.3 mph 24.2 mph N/A   Partly Cloudy
4:15 AM 37.4 °F 27.2 °F 28.4 °F 70% 30.37 in 10.0 mi North 19.6 mph 24.2 mph N/A   Partly Cloudy
4:35 AM 35.6 °F 25.5 °F 26.6 °F 70% 30.38 in 10.0 mi North 17.3 mph - N/A   Clear
5:15 AM 35.6 °F 25.5 °F 26.6 °F 70% 30.40 in 10.0 mi North 17.3 mph 27.6 mph N/A   Clear
5:35 AM 35.6 °F 25.2 °F 26.6 °F 70% 30.40 in 10.0 mi North 18.4 mph 25.3 mph N/A   Clear
5:55 AM 35.6 °F 26.6 °F 26.6 °F 70% 30.42 in 10.0 mi North 13.8 mph 19.6 mph N/A   Clear
6:15 AM 33.8 °F 23.5 °F 26.6 °F 75% 30.43 in 10.0 mi North 16.1 mph 23.0 mph N/A   Clear
6:35 AM 33.8 °F 23.5 °F 26.6 °F 75% 30.43 in 10.0 mi NNW 16.1 mph - N/A   Clear
6:55 AM 33.8 °F 23.9 °F 26.6 °F 75% 30.44 in 10.0 mi NNW 15.0 mph - N/A   Partly Cloudy
7:15 AM 32.0 °F 21.6 °F 26.6 °F 80% 30.44 in 10.0 mi North 15.0 mph 19.6 mph N/A   Clear
7:35 AM 32.0 °F 22.1 °F 26.6 °F 80% 30.45 in 10.0 mi North 13.8 mph 18.4 mph N/A   Clear
7:55 AM 32.0 °F 23.6 °F 24.8 °F 75% 30.46 in 10.0 mi NNW 10.4 mph - N/A   Clear
8:15 AM 33.8 °F 24.8 °F 24.8 °F 70% 30.47 in 10.0 mi North 12.7 mph - N/A   Clear
8:35 AM 33.8 °F 24.8 °F 24.8 °F 70% 30.48 in 10.0 mi North 12.7 mph - N/A   Clear
8:55 AM 35.6 °F 26.6 °F 24.8 °F 65% 30.49 in 10.0 mi North 13.8 mph 19.6 mph N/A   Clear
9:15 AM 35.6 °F 25.2 °F 24.8 °F 65% 30.49 in 10.0 mi North 18.4 mph - N/A   Clear
9:35 AM 35.6 °F 25.9 °F 24.8 °F 65% 30.49 in 10.0 mi North 16.1 mph - N/A   Clear
9:55 AM 37.4 °F 27.2 °F 24.8 °F 60% 30.50 in 10.0 mi North 19.6 mph 25.3 mph N/A   Clear
10:15 AM 39.2 °F 30.2 °F 24.8 °F 56% 30.51 in 10.0 mi North 17.3 mph - N/A   Clear
10:35 AM 41.0 °F 32.5 °F 24.8 °F 53% 30.51 in 10.0 mi North 17.3 mph 20.7 mph N/A   Clear
10:55 AM 41.0 °F 31.9 °F 23.0 °F 49% 30.50 in 10.0 mi North 19.6 mph 23.0 mph N/A   Clear
11:15 AM 41.0 °F 32.8 °F 24.8 °F 53% 30.50 in 10.0 mi North 16.1 mph - N/A   Clear
11:35 AM 42.8 °F 35.1 °F 23.0 °F 46% 30.50 in 10.0 mi North 16.1 mph 21.9 mph N/A   Clear
11:55 AM 44.6 °F 37.4 °F 23.0 °F 43% 30.50 in 10.0 mi North 16.1 mph 20.7 mph N/A   Clear
12:15 PM 44.6 °F 37.8 °F 23.0 °F 43% 30.49 in 10.0 mi North 15.0 mph 20.7 mph N/A   Clear
12:55 PM 46.4 °F 39.5 °F 21.2 °F 37% 30.47 in 10.0 mi North 17.3 mph 23.0 mph N/A   Clear
1:15 PM 48.2 °F - 23.0 °F 37% 30.46 in 10.0 mi North 13.8 mph 18.4 mph N/A   Clear
1:35 PM 48.2 °F - 23.0 °F 37% 30.45 in 10.0 mi North 13.8 mph 18.4 mph N/A   Clear
1:55 PM 48.2 °F - 23.0 °F 37% 30.44 in 10.0 mi NNW 11.5 mph 18.4 mph N/A   Clear
2:15 PM 50.0 °F - 23.0 °F 35% 30.43 in 10.0 mi NNW 11.5 mph 19.6 mph N/A   Clear
2:35 PM 50.0 °F - 23.0 °F 35% 30.43 in 10.0 mi NNW 12.7 mph 19.6 mph N/A   Clear
2:55 PM 50.0 °F - 23.0 °F 35% 30.42 in 10.0 mi North 11.5 mph - N/A   Clear
3:15 PM 53.6 °F - 19.4 °F 26% 30.41 in 10.0 mi North 11.5 mph 18.4 mph N/A   Clear
3:35 PM 53.6 °F - 19.4 °F 26% 30.40 in 10.0 mi NNE 10.4 mph 17.3 mph N/A   Clear
3:55 PM 53.6 °F - 19.4 °F 26% 30.40 in 10.0 mi NNE 13.8 mph 20.7 mph N/A   Clear
4:15 PM 53.6 °F - 19.4 °F 26% 30.40 in 10.0 mi North 10.4 mph - N/A   Clear
4:35 PM 53.6 °F - 19.4 °F 26% 30.40 in 10.0 mi NNW 10.4 mph - N/A   Clear
4:55 PM 53.6 °F - 19.4 °F 26% 30.40 in 10.0 mi North 9.2 mph 17.3 mph N/A   Clear
5:15 PM 53.6 °F - 19.4 °F 26% 30.40 in 10.0 mi North 10.4 mph - N/A   Clear
5:35 PM 51.8 °F - 19.4 °F 28% 30.40 in 10.0 mi North 10.4 mph - N/A   Clear
5:55 PM 51.8 °F - 19.4 °F 28% 30.39 in 10.0 mi NNE 5.8 mph - N/A   Clear
6:15 PM 50.0 °F - 19.4 °F 30% 30.39 in 10.0 mi North 5.8 mph - N/A   Clear
6:35 PM 50.0 °F - 21.2 °F 32% 30.39 in 10.0 mi NNE 4.6 mph - N/A   Clear
6:55 PM 48.2 °F - 23.0 °F 37% 30.39 in 10.0 mi NNE 4.6 mph - N/A   Clear
7:15 PM 46.4 °F - 23.0 °F 40% 30.40 in 10.0 mi Calm Calm - N/A   Clear
7:35 PM 46.4 °F - 23.0 °F 40% 30.40 in 10.0 mi Calm Calm - N/A   Clear
7:55 PM 44.6 °F - 24.8 °F 46% 30.41 in 10.0 mi Calm Calm - N/A   Clear
8:15 PM 44.6 °F - 24.8 °F 46% 30.41 in 10.0 mi Calm Calm - N/A   Clear
8:35 PM 44.6 °F - 26.6 °F 49% 30.42 in 10.0 mi Calm Calm - N/A   Clear
8:55 PM 44.6 °F - 23.0 °F 43% 30.42 in 10.0 mi Calm Calm - N/A   Clear
9:15 PM 41.0 °F - 24.8 °F 53% 30.42 in 10.0 mi Calm Calm - N/A   Clear
9:35 PM 39.2 °F - 26.6 °F 61% 30.42 in 10.0 mi Calm Calm - N/A   Clear
9:55 PM 41.0 °F - 24.8 °F 53% 30.42 in 10.0 mi Calm Calm - N/A   Clear
10:15 PM 41.0 °F - 24.8 °F 53% 30.42 in 10.0 mi Calm Calm - N/A   Clear
10:35 PM 39.2 °F - 26.6 °F 61% 30.42 in 10.0 mi Calm Calm - N/A   Clear
10:55 PM 39.2 °F - 26.6 °F 61% 30.42 in 10.0 mi Calm Calm - N/A   Clear
11:15 PM 39.2 °F - 26.6 °F 61% 30.42 in 10.0 mi Calm Calm - N/A   Clear
11:55 PM 39.2 °F - 26.6 °F 61% 30.41 in 10.0 mi Calm Calm - N/A   Clear